TimeCDT,TemperatureF,Dew PointF,Humidity,Sea Level PressureIn,VisibilityMPH,Wind Direction,Wind SpeedMPH,Gust SpeedMPH,PrecipitationIn,Events,Conditions,WindDirDegrees,DateUTC
12:53 AM,70.0,55.9,61,29.77,10.0,ESE,12.7,-,N/A,,Overcast,120,2013-06-22 05:53:00
1:37 AM,69.8,55.4,60,29.89,10.0,Calm,Calm,-,N/A,Thunderstorm,Overcast,0,2013-06-22 06:37:00
1:53 AM,69.1,57.0,65,29.80,10.0,ESE,5.8,-,N/A,,Overcast,110,2013-06-22 06:53:00
2:01 AM,68.0,57.2,68,29.90,10.0,East,10.4,-,N/A,Thunderstorm,Overcast,100,2013-06-22 07:01:00
2:15 AM,68.0,57.2,68,29.90,10.0,East,11.5,-,N/A,,Overcast,90,2013-06-22 07:15:00
2:53 AM,68.0,57.0,68,29.83,10.0,NNW,10.4,-,N/A,,Overcast,340,2013-06-22 07:53:00
3:00 AM,68.0,57.2,68,29.94,10.0,NE,10.4,-,N/A,Thunderstorm,Overcast,50,2013-06-22 08:00:00
3:53 AM,64.0,57.9,80,29.82,10.0,ENE,15.0,-,0.01,Rain,Light Rain,70,2013-06-22 08:53:00
4:00 AM,64.4,57.2,77,29.91,10.0,East,13.8,-,0.00,Thunderstorm,Overcast,80,2013-06-22 09:00:00
4:15 AM,64.4,57.2,77,29.91,10.0,ENE,17.3,-,0.00,Rain,Light Rain,70,2013-06-22 09:15:00
4:53 AM,64.0,55.9,75,29.78,10.0,East,12.7,-,0.00,,Mostly Cloudy,80,2013-06-22 09:53:00
5:53 AM,62.1,55.9,80,29.76,10.0,ESE,15.0,-,N/A,,Clear,110,2013-06-22 10:53:00
6:53 AM,61.0,55.9,83,29.78,10.0,ESE,12.7,-,N/A,,Clear,110,2013-06-22 11:53:00
7:53 AM,63.0,57.0,81,29.81,10.0,ESE,12.7,-,N/A,,Clear,110,2013-06-22 12:53:00
8:53 AM,66.0,57.0,73,29.81,10.0,ESE,17.3,26.5,N/A,,Scattered Clouds,120,2013-06-22 13:53:00
9:53 AM,68.0,57.9,70,29.83,10.0,ESE,12.7,20.7,N/A,,Clear,120,2013-06-22 14:53:00
10:53 AM,72.0,61.0,68,29.82,10.0,ESE,12.7,-,N/A,,Clear,120,2013-06-22 15:53:00
11:53 AM,73.9,63.0,68,29.81,10.0,ESE,17.3,-,N/A,,Clear,120,2013-06-22 16:53:00
12:38 PM,75.2,64.4,69,29.88,10.0,East,13.8,-,N/A,,Mostly Cloudy,100,2013-06-22 17:38:00
12:53 PM,78.1,64.9,64,29.80,10.0,East,13.8,20.7,N/A,,Mostly Cloudy,100,2013-06-22 17:53:00
1:09 PM,77.0,64.4,65,29.88,10.0,East,12.7,-,N/A,,Scattered Clouds,100,2013-06-22 18:09:00
1:53 PM,77.0,64.9,66,29.79,10.0,East,11.5,-,N/A,,Mostly Cloudy,100,2013-06-22 18:53:00
2:53 PM,79.0,64.9,62,29.76,10.0,ESE,8.1,-,N/A,,Overcast,110,2013-06-22 19:53:00
3:53 PM,82.0,66.0,58,29.73,10.0,ENE,10.4,-,N/A,,Scattered Clouds,70,2013-06-22 20:53:00
4:53 PM,82.9,66.0,56,29.70,10.0,ENE,9.2,-,N/A,,Clear,60,2013-06-22 21:53:00
5:53 PM,82.9,68.0,60,29.66,10.0,East,10.4,-,N/A,,Partly Cloudy,80,2013-06-22 22:53:00
6:53 PM,82.0,68.0,62,29.62,10.0,ENE,12.7,-,N/A,,Clear,60,2013-06-22 23:53:00
7:53 PM,79.0,69.1,72,29.65,10.0,NE,11.5,-,N/A,,Clear,40,2013-06-23 00:53:00
8:53 PM,75.0,69.1,82,29.65,10.0,NNE,8.1,-,N/A,,Clear,20,2013-06-23 01:53:00
9:53 PM,73.0,69.1,87,29.63,10.0,NE,12.7,-,N/A,,Clear,50,2013-06-23 02:53:00
10:53 PM,73.0,64.9,76,29.78,10.0,West,46.0,64.4,N/A,,Partly Cloudy,280,2013-06-23 03:53:00
11:03 PM,64.4,57.2,77,29.85,7.0,WNW,36.8,66.7,0.00,Rain-Thunderstorm,Thunderstorms and Rain,300,2013-06-23 04:03:00
11:53 PM,64.0,55.0,73,29.80,2.0,North,12.7,23.0,0.04,Rain-Thunderstorm,Light Thunderstorms and Rain,360,2013-06-23 04:53:00